Regional Weather Roundup
Issued by NWS Burlington, VT

Current Version | Previous Version | Text Only | Print | Product List | Glossary On
Versions: 1 2 3 4 5 6 7 8 9 10 11 12 13 14 15 16 17 18 19 20 21 22 23 24 25 26 27 28 29 30 31 32 33 34 35 36 37 38 39 40 41 42 43 44 45 46 47 48 49 50
000
ASUS41 KBTV 032230
RWRBTV
VERMONT REGIONAL WEATHER ROUNDUP
NATIONAL WEATHER SERVICE BURLINGTON VT
600 PM EDT MON AUG 03 2015

NOTE: "FAIR" INDICATES FEW OR NO CLOUDS BELOW 12,000 FEET WITH NO
SIGNIFICANT WEATHER AND/OR OBSTRUCTIONS TO VISIBILITY.

* THESE REPORTS ARE NOT UNDER NWS QUALITY CONTROL AND/OR DO NOT
  REPORT WEATHER SUCH AS PRECIPITATION AND FOG.

VTZ001>019-032300-
_____VERMONT_____


CITY           SKY/WX    TMP DP  RH WIND       PRES   REMARKS
BURLINGTON     LGT RAIN  82  65  56 SW5       29.67F
MONTPELIER     PTSUNNY   78  61  55 W8G18     29.75F
MORRISVILLE    MOSUNNY   79  65  62 S6        29.70F
ST. JOHNSBURY*   N/A     81  61  50 MISG      29.67S
LYNDONVILLE*   FAIR      77  62  59 CALM      29.74R
MIDDLEBURY*    PTSUNNY   82  62  50 CALM      29.69F
SPRINGFIELD    CLOUDY    70  62  76 CALM      29.76R
HIGHGATE*      FAIR      76  65  67 CALM      29.67F
NEWPORT*       FAIR      76  66  71 CALM      29.70F
BENNINGTON     LGT RAIN  72  64  76 SW8G16    29.77R
SUTTON*          N/A     75 N/A N/A MISG        N/A
MT. MANSFIELD*   N/A     64 N/A N/A W15         N/A

_____LAKE CHAMPLAIN_____


CITY           SKY/WX    TMP DP  RH WIND       PRES   REMARKS
COLCHESTER RF*   N/A     77  63  61 N3          N/A
DIAMOND ISL*     N/A     79  64  61 SW13        N/A

$$

NYZ007-026>031-035-052-083-032300-
_____NORTHERN NEW YORK_____


CITY           SKY/WX    TMP DP  RH WIND       PRES   REMARKS
PLATTSBURGH    MOSUNNY   79  61  53 SW3       29.67S
SARANAC LAKE   PTSUNNY   67  61  81 SW10      29.76S
MASSENA        MOSUNNY   74  61  63 SW16G25   29.69R
OGDENSBURG*    SUNNY     75  63  64 NW8       29.71R
POTSDAM*       MOSUNNY   73  64  73 W15G23    29.71S
WATERTOWN      SUNNY     75  61  61 SW9       29.72S
FT DRUM        SUNNY     75  60  59 SW15G21   29.73S
ALBANY         TSTM      75  63  66 S12G30    29.75R
GLENS FALLS    MOSUNNY   79  67  66 S7        29.71R

$$
NHZ002-005-011-032300-
_____NEW HAMPSHIRE_____


CITY           SKY/WX    TMP DP  RH WIND       PRES   REMARKS
LEBANON        CLOUDY    69  63  81 S14       29.74F
KEENE          CLOUDY    82  61  47 S13       29.74S
MT WASHINGTON  TSTM      55  55 100 S15G26      N/A  VSB 1/16
PLYMOUTH       FAIR      82  67  59 S6        29.69R
WHITEFIELD     LGT RAIN  70  61  73 S10G18    29.74R

$$

_____REGIONAL QUEBEC LOCATIONS_____


CITY           SKY/WX    TMP DP  RH WIND       PRES   REMARKS
MONTREAL       PTSUNNY   77  63  61 SW16G22   29.66S
QUEBEC CITY    PTSUNNY   75  64  69 SW14G22   29.66S
SHERBROOKE     MOSUNNY   70  66  88 SE6       29.71S

_____REGIONAL ONTARIO LOCATIONS_____


CITY           SKY/WX    TMP DP  RH WIND       PRES   REMARKS
OTTAWA         MOSUNNY   73  64  73 S17G25    29.67S

______KEY______
VSB  - VISIBILITY IN MILES
WCI  - WIND CHILL INDEX
HX   - HEAT INDEX
$$
NNNN



USA.gov is the U.S. government's official web portal to all federal, state and local government web resources and services.